942  
ASUS44 KSJT 231610  
RWRSJT  
WEST CENTRAL TEXAS REGIONAL WEATHER ROUNDUP  
NATIONAL WEATHER SERVICE SAN ANGELO TX  
1000 AM CST THU NOV 23 2017  
 
NOTE: "FAIR" INDICATES FEW OR NO CLOUDS BELOW 12,000 FEET WITH NO  
SIGNIFICANT WEATHER AND/OR S TO VISIBILITY
.  
 
TXZ049-054-064>066-071>073-076>078-098-099-113-114-127-128-139-140-  
154-155-168>170-231700   
..LOCATIONS ACROSS WEST CENTRAL TEXAS
 
 
 
CITY SKY/WX TMP DP RH WIND PRES REMARKS
 
SAN ANGELO SUNNY 53 26 35 W6 30.21S  
ABILENE SUNNY 57 28 33 SW9 30.18F  
DYESS AFB SUNNY 60 32 34 W3 30.18S  
JUNCTION SUNNY 47 26 44 CALM 30.22F  
SWEETWATER SUNNY 56 26 32 SW15 30.21R  
BROWNWOOD SUNNY 48 32 53 CALM 30.22S  
COLEMAN SUNNY 59 26 29 W7 30.20S  
SONORA SUNNY 55 21 26 S7 30.26F  
OZONA FAIR 55 23 28 S7 30.25F  
BRADY NOT AVBL  

 
 
TEXAS PANHANDLE/OKLAHOMA PANHANDLE  
 
CITY SKY/WX TMP DP RH WIND PRES REMARKS
 
AMARILLO CLOUDY 57 34 41 NW10 30.22R  
BORGER CLOUDY 55 35 47 W6 30.19S  
CANADIAN CLOUDY 57 38 48 NW8 30.15F  
DALHART CLOUDY 59 38 45 N6 30.23F  
DUMAS CLOUDY 58 37 45 N9 30.21S  
GUYMON NOT AVBL  
HEREFORD CLOUDY 59 34 38 MISG 30.23F  
PAMPA CLOUDY 58 35 43 NW9 30.19S  
PERRYTON CLOUDY 59 40 49 NW12 30.15F  

 
 
SOUTHERN PANHANDLE/SOUTH PLAINS/ROLLING PLAINS  
 
CITY SKY/WX TMP DP RH WIND PRES REMARKS
 
LUBBOCK PTSUNNY 62 30 29 NW5 30.20S  
SNYDER SUNNY 50 31 48 SW8 30.19S  
CHILDRESS SUNNY 60 33 36 NW7 30.15F  
SEMINOLE CLOUDY 56 30 37 N5 30.23S  

 
 
PERMIAN BASIN  
 
CITY SKY/WX TMP DP RH WIND PRES REMARKS
 
MIDLAND SUNNY 54 29 38 W3 30.21F  
ODESSA SUNNY 53 29 39 W3 30.22S  
WINK SUNNY 54 29 38 VRB5 30.23S  

 
 
FAR WEST/SOUTHWEST MOUNTAINS/TRANS PECOS  
 
CITY SKY/WX TMP DP RH WIND PRES REMARKS
 
ALPINE SUNNY 61 24 24 CALM 30.32S  
DRYDEN N/A 59 29 31 SW6 30.21S  
EL PASO MOSUNNY 53 27 36 N5 30.29R  
FORT STOCKTON SUNNY 51 28 41 W9 30.25R  
GUADALUPE PASS SUNNY 54 25 32 S3 30.32R  
MARFA SUNNY 57 23 26 CALM 30.30R  
PECOS SUNNY 49 30 47 W3 30.26S  

 
 
DALLAS/FORT WORTH METROPLEX  
 
CITY SKY/WX TMP DP RH WIND PRES REMARKS
 
DFW AIRPORT MOSUNNY 53 27 36 S8 30.18S  
FTW MEACHAM SUNNY 53 32 44 VRB3 30.19S  
DAL-EXECUTIVE SUNNY 53 26 35 S7 30.19F  
GRAND PRAIRIE SUNNY 52 25 35 S3 30.21F  
ADDISON SUNNY 52 23 32 SW6 30.20S  
MESQUITE SUNNY 50 27 40 S5 30.21F  
LANCASTER SUNNY 51 26 37 S3 30.22F  

 
 
NORTH CENTRAL TEXAS  
 
CITY SKY/WX TMP DP RH WIND PRES REMARKS
 
SHRMAN/DENISON SUNNY 53 25 33 SW8 30.19F  
GAINESVILLE SUNNY 52 28 39 CALM 30.19S  
BRIDGEPORT SUNNY 55 31 40 CALM 30.20R  
DENTON SUNNY 53 31 42 SE3 30.19S  
WAXAHACHIE SUNNY 52 29 42 S3 30.22S  
GRANBURY SUNNY 50 35 54 CALM 30.21F  

 
 
WESTERN NORTH TEXAS  
 
CITY SKY/WX TMP DP RH WIND PRES REMARKS
 
WICHITA FALLS SUNNY 49 27 42 VRB5 30.15S HAZE  
VERNON SUNNY 49 22 35 CALM 30.16R  
BRECKENRIDGE SUNNY 59 27 29 SW7 30.17F  
COMANCHE SUNNY 59 29 32 SW10 30.19F  

 
 
CENTRAL AND SOUTH CENTRAL TEXAS  
 
CITY SKY/WX TMP DP RH WIND PRES REMARKS
 
AUSTIN/BERGSTM MOSUNNY 52 26 36 CALM 30.23S  
WACO SUNNY 50 32 50 SE3 30.23S  
HILLSBORO SUNNY 51 27 38 S5 30.21S  
TEMPLE SUNNY 53 30 41 S5 30.23S  
KILLEEN-GRAY SUNNY 56 24 29 S3 30.20S  
FORT HOOD SUNNY 53 26 34 CALM 30.18S  
GEORGETOWN SUNNY 54 26 34 CALM 30.24S  
LAGO VISTA FAIR 51 30 45 W5 30.22S  
SAN MARCOS SUNNY 55 23 28 CALM 30.25S  
NEW BRAUNFELS SUNNY 55 25 31 CALM 30.23S  
RANDOLPH AFB SUNNY 56 24 29 CALM 30.23S  
SAN ANTONIO MOSUNNY 56 22 26 CALM 30.24S  
STINSON SUNNY 57 26 30 CALM 30.23S  
PLEASANTON NOT AVBL  
LA GRANGE SUNNY 53 32 45 N3 30.21S  
GIDDINGS SUNNY 51 29 43 NE3 30.24S  

 
 
EAST TEXAS  
 
CITY SKY/WX TMP DP RH WIND PRES REMARKS
 
PARIS SUNNY 47 32 56 CALM 30.21F  
CLARKSVILLE NOT AVBL  
TYLER SUNNY 50 29 44 S5 30.21S  
LONGVIEW SUNNY 48 35 60 S5 30.22S  
PALESTINE SUNNY 51 33 48 CALM 30.23S  
NACOGDOCHES SUNNY 50 32 50 CALM 30.23S  

 
 
TEXAS HILL COUNTRY AND EDWARDS PLATEAU  
 
CITY SKY/WX TMP DP RH WIND PRES REMARKS
 
LLANO SUNNY 52 28 40 CALM 30.26F  
HORSESHOE BAY FAIR 53 26 35 CALM 30.23R  
KERRVILLE SUNNY 49 30 49 CALM 30.22S  
FREDERICKSBRG SUNNY 52 25 35 SW5 30.22S  
ROCKSPRINGS NOT AVBL  
HONDO SUNNY 59 20 22 VRB3 30.24S  
UVALDE SUNNY 55 22 28 S3 30.25F  
DEL RIO SUNNY 51 33 50 S6 30.23S  

 
 
SOUTHEAST TEXAS  
 
CITY SKY/WX TMP DP RH WIND PRES REMARKS
 
COLLEGE STN SUNNY 53 30 41 N5 30.23S  
CALDWELL SUNNY 52 29 40 N5 30.24S  
CROCKETT N/A 50 32 50 CALM 30.25S  
BRENHAM SUNNY 53 34 48 NE5 30.23S  
HUNTSVILLE SUNNY 51 36 56 CALM 30.22S  
CONROE SUNNY 52 39 61 CALM 30.22S  
HOUSTON BUSH MOSUNNY 53 37 54 CALM 30.22S  
HOUSTON HOBBY MOSUNNY 54 37 52 E6 30.21S  
PERLAND SUNNY 56 37 49 N5 30.23S  
WHARTON SUNNY 53 35 50 NE3 30.22F  

 
 
THE UPPER TEXAS COAST  
 
CITY SKY/WX TMP DP RH WIND PRES REMARKS
 
ORANGE SUNNY 51 35 54 N7 30.22S  
PORT ARTHUR SUNNY 52 31 44 N9 30.20S  
GALVESTON SUNNY 56 40 55 N12 30.21S  
ANGLETON SUNNY 57 41 55 NE8 30.21S  
BAY CITY SUNNY 56 42 60 E6 30.20S  

 
 
TEXAS COASTAL BEND, RIO GRANDE PLAINS DEEP SOUTH TEXAS  
 
CITY SKY/WX TMP DP RH WIND PRES REMARKS
 
VICTORIA SUNNY 57 34 41 N7 30.23S  
BEEVILLE FAIR 56 29 34 NE6 30.25R  
ROCKPORT SUNNY 55 40 56 NW9 30.23R  
PORT ARANSAS NOT AVBL  
PORT LAVACA SUNNY 53 40 60 N5 30.23R  
CORPUS CHRISTI MOSUNNY 57 34 41 N9 30.23S  
KINGSVILLE NAS SUNNY 60 34 37 N6 30.23F  
COTULLA SUNNY 57 22 25 SE5 30.25S  
LAREDO SUNNY 59 41 51 CALM 30.25R  
BROWNSVILLE SUNNY 66 48 52 NW7 30.22S  
PORT ISABEL SUNNY 63 45 51 NW9 30.20F  
HEBBRONVILLE SUNNY 59 31 34 CALM 30.24F  
MCALLEN SUNNY 62 40 44 N6 30.24S  
WESLACO SUNNY 58 41 52 CALM 30.23S  
FALFURRIAS NOT AVBL  
EDINBURG SUNNY 62 37 39 N5 30.24S  

 
 
 
CLICK HERE TO GO TO PREVIOUS BULLETINS.

The Nexlab TX Page Main Text Page